TimeCST,TemperatureF,Dew PointF,Humidity,Sea Level PressureIn,VisibilityMPH,Wind Direction,Wind SpeedMPH,Gust SpeedMPH,PrecipitationIn,Events,Conditions,WindDirDegrees,DateUTC
12:15 AM,48.4,35.6,61,30.20,10.0,ENE,10.4,-,N/A,,Clear,60,2013-02-20 06:15:00
12:35 AM,49.1,36.0,61,30.21,10.0,ENE,9.2,-,N/A,,Clear,60,2013-02-20 06:35:00
12:55 AM,48.4,36.5,64,30.20,10.0,ENE,8.1,-,N/A,,Clear,70,2013-02-20 06:55:00
1:15 AM,48.2,36.1,63,30.19,10.0,ENE,10.4,-,N/A,,Clear,60,2013-02-20 07:15:00
1:35 AM,48.2,36.3,63,30.17,10.0,ENE,11.5,-,N/A,,Clear,70,2013-02-20 07:35:00
1:55 AM,48.2,34.5,59,30.17,10.0,East,13.8,-,N/A,,Clear,80,2013-02-20 07:55:00
2:15 AM,48.0,34.2,59,30.15,10.0,East,12.7,17.3,N/A,,Clear,80,2013-02-20 08:15:00
2:35 AM,47.8,33.4,57,30.17,10.0,ENE,9.2,17.3,N/A,,Clear,70,2013-02-20 08:35:00
2:55 AM,47.5,33.4,58,30.18,10.0,ENE,6.9,-,N/A,,Clear,70,2013-02-20 08:55:00
3:15 AM,46.0,34.0,63,30.17,10.0,East,8.1,-,N/A,,Clear,80,2013-02-20 09:15:00
3:35 AM,45.7,34.0,64,30.18,10.0,East,5.8,-,N/A,,Clear,90,2013-02-20 09:35:00
3:55 AM,44.8,34.7,68,30.17,10.0,East,6.9,-,N/A,,Clear,90,2013-02-20 09:55:00
4:15 AM,45.0,34.3,66,30.17,10.0,East,5.8,-,N/A,,Clear,90,2013-02-20 10:15:00
4:35 AM,44.8,34.3,67,30.18,10.0,East,5.8,-,N/A,,Clear,80,2013-02-20 10:35:00
4:55 AM,44.8,33.8,65,30.17,10.0,East,9.2,-,N/A,,Clear,90,2013-02-20 10:55:00
5:15 AM,45.5,32.4,60,30.17,10.0,East,11.5,-,N/A,,Scattered Clouds,80,2013-02-20 11:15:00
5:35 AM,45.7,32.0,59,30.18,10.0,East,10.4,-,N/A,,Mostly Cloudy,80,2013-02-20 11:35:00
6:15 AM,45.7,29.1,52,30.18,10.0,ENE,12.7,18.4,N/A,,Scattered Clouds,70,2013-02-20 12:15:00
6:35 AM,45.5,28.4,51,30.18,10.0,East,10.4,16.1,N/A,,Clear,80,2013-02-20 12:35:00
7:15 AM,45.5,28.0,51,30.21,10.0,ENE,11.5,16.1,N/A,,Clear,70,2013-02-20 13:15:00
7:35 AM,46.2,28.4,50,30.20,10.0,ENE,11.5,17.3,N/A,,Clear,70,2013-02-20 13:35:00
8:15 AM,46.9,27.7,47,30.19,10.0,East,16.1,-,N/A,,Clear,80,2013-02-20 14:15:00
8:35 AM,46.9,27.9,48,30.20,10.0,East,17.3,32.2,N/A,,Clear,90,2013-02-20 14:35:00
9:15 AM,47.3,29.3,50,30.22,10.0,East,10.4,-,N/A,,Clear,90,2013-02-20 15:15:00
9:35 AM,47.7,29.8,50,30.18,10.0,East,16.1,-,N/A,,Clear,90,2013-02-20 15:35:00
9:55 AM,49.1,30.9,50,30.19,10.0,East,13.8,-,N/A,,Clear,90,2013-02-20 15:55:00
10:15 AM,50.2,31.3,48,30.15,10.0,East,19.6,-,N/A,,Clear,90,2013-02-20 16:15:00
10:35 AM,52.0,29.8,43,30.16,10.0,East,17.3,20.7,N/A,,Clear,90,2013-02-20 16:35:00
10:55 AM,53.2,30.0,41,30.14,10.0,East,18.4,-,N/A,,Clear,100,2013-02-20 16:55:00
11:15 AM,54.9,31.1,40,30.13,10.0,East,11.5,-,N/A,,Clear,100,2013-02-20 17:15:00
11:35 AM,54.3,29.8,39,30.16,10.0,East,8.1,-,N/A,,Clear,80,2013-02-20 17:35:00
11:55 AM,55.9,31.3,39,30.14,10.0,East,8.1,-,N/A,,Scattered Clouds,100,2013-02-20 17:55:00
12:15 PM,56.3,31.5,39,30.14,10.0,ESE,10.4,-,N/A,,Mostly Cloudy,120,2013-02-20 18:15:00
12:35 PM,57.4,32.9,40,30.12,10.0,ESE,8.1,-,N/A,,Scattered Clouds,110,2013-02-20 18:35:00
12:55 PM,59.0,35.4,41,30.10,10.0,ESE,9.2,17.3,N/A,,Scattered Clouds,120,2013-02-20 18:55:00
1:15 PM,58.1,35.8,43,30.10,10.0,SE,10.4,-,N/A,,Mostly Cloudy,130,2013-02-20 19:15:00
1:35 PM,59.2,38.1,46,30.09,10.0,East,15.0,20.7,N/A,,Mostly Cloudy,100,2013-02-20 19:35:00
1:55 PM,59.4,37.9,45,30.09,10.0,East,12.7,-,N/A,,Scattered Clouds,100,2013-02-20 19:55:00
2:15 PM,59.2,38.5,46,30.09,10.0,ESE,6.9,16.1,N/A,,Overcast,110,2013-02-20 20:15:00
2:35 PM,59.2,39.6,48,30.09,10.0,SE,6.9,-,N/A,,Overcast,140,2013-02-20 20:35:00
2:55 PM,60.8,39.7,46,30.07,10.0,East,9.2,-,N/A,,Overcast,90,2013-02-20 20:55:00
3:15 PM,59.5,39.2,47,30.05,10.0,East,12.7,16.1,N/A,,Mostly Cloudy,90,2013-02-20 21:15:00
3:35 PM,59.4,39.6,48,30.05,10.0,East,16.1,-,N/A,,Overcast,100,2013-02-20 21:35:00
3:55 PM,59.9,39.6,47,30.02,10.0,East,17.3,-,N/A,,Overcast,90,2013-02-20 21:55:00
4:15 PM,59.9,39.4,47,30.03,10.0,East,17.3,23.0,N/A,,Scattered Clouds,90,2013-02-20 22:15:00
4:35 PM,58.8,38.8,47,30.01,10.0,East,16.1,-,N/A,,Scattered Clouds,90,2013-02-20 22:35:00
4:55 PM,58.3,38.3,47,30.00,10.0,East,16.1,20.7,N/A,,Mostly Cloudy,100,2013-02-20 22:55:00
5:15 PM,58.1,37.8,47,30.00,10.0,East,11.5,15.0,N/A,,Overcast,90,2013-02-20 23:15:00
5:35 PM,57.6,37.4,47,29.99,10.0,East,17.3,20.7,N/A,,Overcast,100,2013-02-20 23:35:00
5:55 PM,57.2,37.6,48,30.00,10.0,East,11.5,-,N/A,,Overcast,90,2013-02-20 23:55:00
6:15 PM,56.5,36.7,48,29.99,10.0,East,15.0,-,N/A,,Overcast,90,2013-02-21 00:15:00
6:35 PM,56.3,36.5,47,30.00,10.0,East,12.7,-,N/A,,Overcast,90,2013-02-21 00:35:00
6:55 PM,55.9,36.0,47,30.02,10.0,East,9.2,-,N/A,,Overcast,90,2013-02-21 00:55:00
7:15 PM,55.8,35.8,47,30.02,10.0,East,11.5,-,N/A,,Overcast,100,2013-02-21 01:15:00
7:35 PM,55.4,35.8,48,30.01,10.0,East,13.8,-,N/A,,Overcast,90,2013-02-21 01:35:00
7:55 PM,55.0,36.7,50,30.00,10.0,East,10.4,-,N/A,,Overcast,100,2013-02-21 01:55:00
8:15 PM,54.9,37.2,51,30.00,10.0,East,13.8,-,N/A,,Overcast,100,2013-02-21 02:15:00
8:35 PM,54.7,37.9,53,30.00,10.0,East,15.0,-,N/A,,Overcast,100,2013-02-21 02:35:00
8:55 PM,54.7,37.8,53,29.99,10.0,East,13.8,24.2,N/A,,Overcast,100,2013-02-21 02:55:00
9:15 PM,54.5,37.9,54,29.99,10.0,East,17.3,20.7,N/A,,Overcast,100,2013-02-21 03:15:00
9:35 PM,54.1,37.4,53,29.98,10.0,ESE,16.1,19.6,N/A,,Overcast,110,2013-02-21 03:35:00
9:55 PM,54.1,37.6,54,29.98,10.0,ESE,18.4,21.9,N/A,,Overcast,110,2013-02-21 03:55:00
10:15 PM,54.0,37.6,54,29.98,10.0,ESE,15.0,26.5,N/A,,Overcast,110,2013-02-21 04:15:00
10:35 PM,53.8,37.8,55,29.97,10.0,ESE,16.1,-,N/A,,Overcast,110,2013-02-21 04:35:00
10:55 PM,53.8,38.3,56,29.97,10.0,East,13.8,18.4,N/A,,Overcast,100,2013-02-21 04:55:00
11:15 PM,53.8,38.7,57,29.97,10.0,ESE,12.7,17.3,N/A,,Overcast,120,2013-02-21 05:15:00
11:35 PM,53.8,39.0,57,29.97,10.0,ESE,11.5,18.4,N/A,,Overcast,110,2013-02-21 05:35:00
11:55 PM,54.0,38.7,56,29.96,10.0,ESE,12.7,18.4,N/A,,Overcast,110,2013-02-21 05:55:00